Regional Weather Roundup
Issued by NWS Kansas City/Pleasant Hill, MO

Home | Current Version | Previous Version | Text Only | Print | Product List | Glossary On
Versions: 1 2 3 4 5 6 7 8 9 10 11 12 13 14 15 16 17 18 19 20 21 22 23 24 25 26 27 28 29 30 31 32 33 34 35 36 37 38 39 40 41 42 43 44 45 46 47 48 49 50
000
ASUS43 KEAX 311611
RWREAX

WEATHER ROUNDUP FOR EASTERN KANSAS AND NORTHWEST MISSOURI
NATIONAL WEATHER SERVICE KANSAS CITY/PLEASANT HILL MO
1000 AM CST SAT JAN 31 2015

KSZ040-057-103>105-MOZ028-029-037-043-311700-
...KANSAS CITY METROPOLITAN AREA...

CITY           SKY/WX    TMP DP  RH WIND       PRES   REMARKS
K.C. INTL      RAIN      36  36 100 SE8       30.22F FOG     WCI  30
K.C. DOWNTOWN  LGT RAIN  37  36  96 E8        30.23F WCI  31
LEES SUMMIT    RAIN      35  33  92 SE7       30.25S FOG     WCI  29
OLATHE - IXD   CLOUDY    37  36  96 SE9       30.22F WCI  30
OLATHE - OJC   LGT RAIN  37  37 100 SE7       30.19F WCI  32
LAWRENCE       CLOUDY    36  35  96 SE6       30.21F FOG     WCI  31

$$

MOZ001>008-011>017-020>025-030>033-038>040-044>046-053-054-311700-
...NORTHERN AND CENTRAL MISSOURI...

CITY           SKY/WX    TMP DP  RH WIND       PRES   REMARKS
ST. JOSEPH     LGT RAIN  36  35  96 CALM      30.22F FOG
WHITEMAN AFB   LGT RAIN  35  32  89 S7        30.27F WCI  29
CLINTON        DRIZZLE   37  36  93 SE8       30.28S WCI  31
SEDALIA        MIX PCPN  37  32  82 S6        30.29F WCI  32
WARSAW         NOT AVBL
MARSHALL       MIX PCPN  36  34  93 CALM      30.29R
CHILLICOTHE      N/A     35  33  92 CALM      30.26F
MOBERLY        MIX PCPN  34  27  75 CALM      30.28
KIRKSVILLE     MIX PCPN  32  31  96 SW6       30.26F FOG     WCI  26

$$

MOZ041-047>049-056>058-063>065-088>090-097-311700-
...EASTERN AND SOUTHERN MISSOURI...

CITY           SKY/WX    TMP DP  RH WIND       PRES   REMARKS
ST. LOUIS INTL CLOUDY    40  23  50 SW7       30.33S
SPIRIT OF STL  CLOUDY    39  25  57 CALM      30.33S
COLUMBIA       CLOUDY    37  24  59 S8        30.30S WCI  31
JEFFERSON CITY CLOUDY    37  24  59 E3        30.32R
MEXICO         CLOUDY    37  30  75 SW8       30.30R WCI  31
ROLLA          CLOUDY    38  25  59 S9        30.28F WCI  31
LEBANON        MIX PCPN  37  28  70 E3        30.27F
OSAGE BEACH    CLOUDY    39  21  48 S5        30.30R
SPRINGFIELD    CLOUDY    40  25  55 SE10      30.25F WCI  33
BRANSON        CLOUDY    39  25  56 SE9       30.28R WCI  33
NEVADA         CLOUDY    37  36  93 E5        30.25F WCI  34
JOPLIN         CLOUDY    43  25  49 SE7       30.24F
WEST PLAINS    CLOUDY    36  25  64 SE6       30.29F WCI  31

$$

IAZ060-094-KSZ022-034>040-054-083-096-NEZ052-066-093-311700-
...KANSAS...SOUTHEAST NEBRASKA AND IOWA...

CITY           SKY/WX    TMP DP  RH WIND       PRES   REMARKS
TOPEKA         CLOUDY    38  36  92 SE6       30.21S WCI  33
MANHATTAN      LGT RAIN  37  35  92 S10       30.16F FOG     WCI  30
EMPORIA        LGT RAIN  37  34  89 S17       30.18F FOG     WCI  27
CHANUTE        CLOUDY    40  33  76 SE8       30.22F WCI  34
WICHITA        LGT RAIN  36  32  85 S10       30.13F FOG     WCI  28
OMAHA          LGT RAIN  36  34  92 S10       30.15F WCI  28
LINCOLN        LGT SNOW  33  32  96 S10       30.14S FOG     WCI  25
FALLS CITY     RAIN      35  34  96 SE6       30.19F FOG     WCI  30
LAMONI         LGT RAIN  34  33  96 S8        30.21F FOG     WCI  27
DES MOINES     CLOUDY    39  33  79 SW6       30.19S WCI  35

$$




USA.gov is the U.S. government's official web portal to all federal, state and local government web resources and services.